TimeEDT,TemperatureF,Dew PointF,Humidity,Sea Level PressureIn,VisibilityMPH,Wind Direction,Wind SpeedMPH,Gust SpeedMPH,PrecipitationIn,Events,Conditions,WindDirDegrees,DateUTC
12:15 AM,57.2,48.2,72,29.99,10.0,SW,12.7,18.4,N/A,,Overcast,220,2013-04-17 04:15:00
12:35 AM,55.4,48.2,77,29.99,10.0,SW,15.0,20.7,N/A,,Mostly Cloudy,230,2013-04-17 04:35:00
12:55 AM,55.4,48.2,77,29.98,10.0,WSW,11.5,-,N/A,,Mostly Cloudy,240,2013-04-17 04:55:00
1:15 AM,55.4,48.2,77,30.00,10.0,WSW,11.5,-,N/A,,Overcast,240,2013-04-17 05:15:00
1:35 AM,57.2,48.2,72,30.00,10.0,West,9.2,-,N/A,,Overcast,260,2013-04-17 05:35:00
2:15 AM,57.2,48.2,72,30.00,10.0,West,13.8,-,N/A,,Clear,260,2013-04-17 06:15:00
2:35 AM,57.2,48.2,72,30.01,10.0,West,10.4,-,N/A,,Clear,260,2013-04-17 06:35:00
2:55 AM,57.2,46.4,67,30.03,10.0,NW,13.8,19.6,N/A,,Scattered Clouds,310,2013-04-17 06:55:00
3:15 AM,55.4,39.2,54,30.04,10.0,WNW,10.4,18.4,N/A,,Scattered Clouds,300,2013-04-17 07:15:00
3:35 AM,55.4,39.2,54,30.05,10.0,WNW,12.7,18.4,N/A,,Partly Cloudy,290,2013-04-17 07:35:00
3:55 AM,53.6,37.4,54,30.05,10.0,West,13.8,19.6,N/A,,Partly Cloudy,280,2013-04-17 07:55:00
4:15 AM,53.6,35.6,51,30.05,10.0,WNW,13.8,21.9,N/A,,Clear,290,2013-04-17 08:15:00
4:35 AM,51.8,35.6,54,30.06,10.0,WNW,11.5,16.1,N/A,,Clear,290,2013-04-17 08:35:00
4:55 AM,51.8,35.6,54,30.07,10.0,WNW,11.5,19.6,N/A,,Clear,290,2013-04-17 08:55:00
5:15 AM,50.0,35.6,58,30.08,10.0,WNW,12.7,18.4,N/A,,Clear,290,2013-04-17 09:15:00
5:35 AM,48.2,32.0,54,30.09,10.0,NW,9.2,17.3,N/A,,Clear,310,2013-04-17 09:35:00
6:15 AM,48.2,28.4,46,30.09,10.0,WNW,9.2,16.1,N/A,,Clear,300,2013-04-17 10:15:00
6:35 AM,48.2,28.4,46,30.11,10.0,WNW,6.9,-,N/A,,Clear,290,2013-04-17 10:35:00
6:55 AM,48.2,28.4,46,30.11,10.0,WNW,11.5,-,N/A,,Clear,290,2013-04-17 10:55:00
7:15 AM,48.2,28.4,46,30.13,10.0,WNW,10.4,-,N/A,,Clear,290,2013-04-17 11:15:00
7:35 AM,48.2,28.4,46,30.13,10.0,WNW,12.7,-,N/A,,Clear,290,2013-04-17 11:35:00
7:55 AM,50.0,28.4,43,30.13,10.0,WNW,9.2,-,N/A,,Clear,300,2013-04-17 11:55:00
8:15 AM,50.0,28.4,43,30.14,10.0,WNW,12.7,19.6,N/A,,Clear,290,2013-04-17 12:15:00
8:35 AM,51.8,26.6,38,30.15,10.0,NW,8.1,18.4,N/A,,Clear,320,2013-04-17 12:35:00
8:55 AM,51.8,28.4,41,30.15,10.0,West,10.4,16.1,N/A,,Clear,270,2013-04-17 12:55:00
9:15 AM,53.6,26.6,35,30.16,10.0,NW,4.6,-,N/A,,Clear,310,2013-04-17 13:15:00
9:35 AM,53.6,26.6,35,30.15,10.0,NW,8.1,17.3,N/A,,Clear,310,2013-04-17 13:35:00
10:15 AM,55.4,26.6,33,30.16,10.0,NW,9.2,-,N/A,,Clear,310,2013-04-17 14:15:00
10:35 AM,55.4,26.6,33,30.16,10.0,WNW,15.0,19.6,N/A,,Clear,290,2013-04-17 14:35:00
10:55 AM,57.2,26.6,31,30.17,10.0,WNW,11.5,16.1,N/A,,Clear,300,2013-04-17 14:55:00
11:15 AM,57.2,26.6,31,30.17,10.0,NW,9.2,16.1,N/A,,Clear,310,2013-04-17 15:15:00
11:35 AM,57.2,26.6,31,30.17,10.0,NNW,9.2,17.3,N/A,,Clear,330,2013-04-17 15:35:00
11:55 AM,57.2,26.6,31,30.16,10.0,WNW,11.5,18.4,N/A,,Clear,290,2013-04-17 15:55:00
12:15 PM,60.8,26.6,27,30.16,10.0,West,13.8,19.6,N/A,,Clear,280,2013-04-17 16:15:00
12:35 PM,60.8,26.6,27,30.16,10.0,West,6.9,17.3,N/A,,Clear,280,2013-04-17 16:35:00
12:55 PM,60.8,26.6,27,30.16,10.0,NNW,4.6,-,N/A,,Clear,330,2013-04-17 16:55:00
1:15 PM,62.6,26.6,26,30.15,10.0,North,12.7,20.7,N/A,,Clear,360,2013-04-17 17:15:00
1:35 PM,62.6,24.8,24,30.15,10.0,NW,11.5,20.7,N/A,,Clear,310,2013-04-17 17:35:00
1:55 PM,62.6,26.6,26,30.15,10.0,NNW,10.4,18.4,N/A,,Clear,330,2013-04-17 17:55:00
2:15 PM,62.6,24.8,24,30.15,10.0,West,11.5,20.7,N/A,,Clear,280,2013-04-17 18:15:00
2:35 PM,62.6,24.8,24,30.15,10.0,NNW,11.5,-,N/A,,Clear,340,2013-04-17 18:35:00
2:55 PM,64.4,24.8,22,30.16,10.0,NNW,17.3,26.5,N/A,,Clear,340,2013-04-17 18:55:00
3:15 PM,62.6,23.0,22,30.16,10.0,NNW,17.3,20.7,N/A,,Clear,340,2013-04-17 19:15:00
3:36 PM,62.6,23.0,22,30.16,10.0,North,20.7,26.5,N/A,,Clear,360,2013-04-17 19:36:00
3:55 PM,62.6,23.0,22,30.17,10.0,NNW,13.8,18.4,N/A,,Clear,340,2013-04-17 19:55:00
4:35 PM,62.6,24.8,24,30.19,10.0,NNW,12.7,17.3,N/A,,Clear,340,2013-04-17 20:35:00
4:55 PM,62.6,24.8,24,30.19,10.0,North,13.8,19.6,N/A,,Clear,360,2013-04-17 20:55:00
5:15 PM,62.6,24.8,24,30.20,10.0,NNW,13.8,20.7,N/A,,Clear,340,2013-04-17 21:15:00
5:55 PM,60.8,21.2,22,30.22,10.0,NW,10.4,19.6,N/A,,Clear,320,2013-04-17 21:55:00
6:16 PM,60.8,23.0,23,30.23,10.0,North,15.0,-,N/A,,Clear,360,2013-04-17 22:16:00
6:35 PM,59.0,21.2,23,30.24,10.0,North,10.4,-,N/A,,Clear,360,2013-04-17 22:35:00
6:55 PM,57.2,21.2,25,30.25,10.0,NNW,8.1,-,N/A,,Clear,340,2013-04-17 22:55:00
7:15 PM,57.2,23.0,27,30.26,10.0,NNW,5.8,-,N/A,,Clear,330,2013-04-17 23:15:00
7:35 PM,55.4,23.0,29,30.27,10.0,NNW,6.9,-,N/A,,Clear,330,2013-04-17 23:35:00
7:55 PM,53.6,23.0,30,30.28,10.0,NW,5.8,-,N/A,,Clear,320,2013-04-17 23:55:00
8:15 PM,51.8,23.0,33,30.30,10.0,WNW,4.6,-,N/A,,Clear,300,2013-04-18 00:15:00
8:35 PM,51.8,24.8,35,30.31,10.0,WNW,4.6,-,N/A,,Clear,300,2013-04-18 00:35:00
8:55 PM,46.4,24.8,43,30.32,10.0,NW,4.6,-,N/A,,Clear,320,2013-04-18 00:55:00
9:15 PM,44.6,26.6,49,30.32,10.0,North,4.6,-,N/A,,Clear,360,2013-04-18 01:15:00
9:35 PM,41.0,28.4,61,30.32,10.0,NNW,5.8,-,N/A,,Clear,330,2013-04-18 01:35:00
9:55 PM,39.2,30.2,70,30.33,10.0,Calm,Calm,-,N/A,,Clear,0,2013-04-18 01:55:00
10:15 PM,37.4,26.6,65,30.32,10.0,Calm,Calm,-,N/A,,Clear,0,2013-04-18 02:15:00
10:35 PM,35.6,28.4,75,30.32,10.0,Calm,Calm,-,N/A,,Clear,0,2013-04-18 02:35:00
10:55 PM,35.6,26.6,70,30.33,10.0,Calm,Calm,-,N/A,,Clear,0,2013-04-18 02:55:00
11:15 PM,33.8,26.6,75,30.33,10.0,SW,3.5,-,N/A,,Clear,230,2013-04-18 03:15:00
11:35 PM,33.8,24.8,70,30.33,10.0,Calm,Calm,-,N/A,,Clear,0,2013-04-18 03:35:00